Regional Weather Roundup
Issued by NWS Charleston, SC

Current Version | Previous Version | Graphics & Text | Print | Product List | Glossary On
Versions: 1 2 3 4 5 6 7 8 9 10 11 12 13 14 15 16 17 18 19 20 21 22 23 24 25 26 27 28 29 30 31 32 33 34 35 36 37 38 39 40 41 42 43 44 45 46 47 48 49 50
000 ASUS42 KCHS 290112 RWRCHS REGIONAL WEATHER ROUNDUP NATIONAL WEATHER SERVICE CHARLESTON SC 900 PM EDT THU MAY 28 2015 NOTE: "FAIR" INDICATES FEW OR NO CLOUDS BELOW 12,000 FEET WITH NO SIGNIFICANT WEATHER AND/OR OBSTRUCTIONS TO VISIBILITY. NOT ALL STATIONS ARE QUALITY CONTROLLED BY THE NATIONAL WEATHER SERVICE. USE DATA WITH CAUTION...ESPECIALLY DEWPOINT OBSERVATIONS. SCZ027-030-031-034>040-042>050-290200- ...SOUTHEAST SOUTH CAROLINA... CITY SKY/WX TMP DP RH WIND PRES REMARKS N CHARLESTON PTCLDY 74 62 66 SE7 30.18S WATERFRONT PAR N/A 76 66 71 E8 30.16R MOUNT PLEASANT LGT RAIN 70 64 83 CALM 30.18F JOHNS ISLAND CLEAR 73 64 73 CALM 30.19S PINOPOLIS N/A 77 64 65 CALM 30.10F MONCKS CORNER FAIR 73 63 68 CALM 30.18S SUMMERVILLE FAIR 73 64 73 CALM 30.19S BEAUFORT MCAS PTCLDY 75 66 73 SE5 30.18S BEAUFORT ARPT FAIR 72 66 83 CALM 30.17S HILTON HEAD IS CLEAR 75 66 73 CALM 30.19S WALTERBORO CLEAR 72 61 68 S3 30.19S ALLENDALE FAIR 77 63 61 SE9 30.16S ...SOUTHERN MIDLANDS AND PEE DEE... CITY SKY/WX TMP DP RH WIND PRES REMARKS GEORGETOWN NOT AVBL KINGSTREE NOT AVBL ORANGEBURG PTCLDY 76 64 66 SE3 30.18S BARNWELL FAIR 75 72 88 SE3 30.17S AIKEN FAIR 77 63 61 SE5 30.20S MANNING FAIR 72 63 73 CALM 30.18S COLUMBIA PTCLDY 80 65 59 E9 30.16R SUMTER PTCLDY 77 64 63 E8 30.17R FLORENCE CLEAR 76 64 66 SE6 30.19R MYRTLE BEACH CLEAR 73 63 68 S7 30.22R N MYRTLE BEACH CLEAR 74 63 68 S6 30.19S $$ GAZ063-065-086>088-099>101-113>116-118-119-134>141-150-290200- ...SOUTHEAST GEORGIA... CITY SKY/WX TMP DP RH WIND PRES REMARKS SAVANNAH ARPT PTCLDY 75 62 64 E9 30.17S HUNTER AAF CLEAR 74 65 73 E7 30.15S FORT STEWART CLEAR 74 64 70 CALM 30.15R STATESBORO CLEAR 76 67 73 SE3 30.16S SYLVANIA CLEAR 77 67 69 SE3 30.18R CLAXTON FAIR 73 66 78 CALM 30.17R ...CSRA...CENTRAL AND FAR SOUTHEAST GEORGIA... CITY SKY/WX TMP DP RH WIND PRES REMARKS THOMSON MOCLDY 76 72 86 CALM 30.22R AUGUSTA-BUSH CLOUDY 78 66 66 S16 30.15R AUGUSTA-DANIEL PTCLDY 83 63 50 CALM 30.17R SWAINSBORO FAIR 81 66 61 SE8 30.17R VIDALIA CLEAR 77 63 61 SE5 30.16R EASTMAN FAIR 74 69 85 CALM 30.18R HAZLEHURST FAIR 79 61 53 SE3 30.14S ALMA CLEAR 75 58 55 E3 30.15R WAYCROSS CLEAR 75 62 62 E5 30.15S JESUP FAIR 77 64 65 CALM 30.17R BAXLEY FAIR 77 61 57 SE3 30.15S BRUNSWICK N/A 72 63 73 CALM 30.17R SAINT SIMONS NOT AVBL $$ SCZ027-028-034-036>038-045-046-048>050-GAZ119-141-290200- ...LAKE AND SUPPLEMENTAL COASTAL OBSERVATIONS... STATION/POSITION TIME TEMP WIND PRES WAVE SWELL AIR SEA DIR/SP/G HT/PER HT/PER/DIR (UTC) (F) (DEG/KT/KT) (MB) (FT/S) (FT/S/D) UPR LAKE MARION NOT AVBL WINYAH BAY 2345 76 140/ 5 1021.0 LAKE MURRAY 0000 83 100/ 2/ 4 1020.7R ACE BASIN NERRS NOT AVBL FORT PULASKI 0000 77 80 90/ 7/ 9 1022.2R SAPELO ISLAND 0000 78 80/ 4 1021.0S $$ ANZ835-935-AMZ111-154-330-350-352-354-370-450-454-472-290200- ...C-MAN AND BUOY OBSERVATIONS... STATION/POSITION TIME TEMP WIND PRES WAVE SWELL AIR SEA DIR/SP/G HT/PER HT/PER/DIR (UTC) (F) (DEG/KT/KT) (MB) (FT/S) (FT/S/D) BUOY 41004 0050 76 79 100/ 8/ 10 1021.9R 3/ 8 3/ 8 BUOY 41008 0050 77 79 70/ 10/ 10 1021.6S 3/ 8 3/110/ 8 FOLLY BEACH CMAN 0000 76 100/ 8/ 9 1022.3R CAPERS NEARSHORE 0008 76 110/ 8/ 12 1022.1R FRIPP NEARSHORE 0000 77 100/ 8/ 10 1021.5R STATION/POSITION TIME TEMP WIND PRES WAVE SWELL AIR SEA DIR/SP/G HT/PER HT/PER/DIR (UTC) (F) (DEG/KT/KT) (MB) (FT/S) (FT/S/D) 5E ST. MARYS GA 0021 80 N/A 3/ 8 FRYING PAN BUOY 0050 76 76 120/ 8/ 10 1023.1R 3/ 8 3/120/ 8 BUOY 41025 0050 75 78 120/ 8/ 10 1023.1S 3/ 8 3/110/ 8 CAPE LOOKOUT NC 0000 74 130/ 7/ 7 1022.3S BUOY 41002 0050 74 74 60/ 14/ 16 1021.9R 7/10 7/ 90/10 BUOY 41010 0020 77 81 60/ 14/ 17 1019.9R ST AUGUSTINE FL 0100 77 80 110/ 10/ 10 1021.5R $$

USA.gov is the U.S. government's official web portal to all federal, state and local government web resources and services.